And if a kingdom be divided against itself, that kingdom cannot stand. And if a house be divided against itself, that house cannot stand.
Mark 3:24-25 KJ
pause

Enter Zip Code:

Current conditions for: Simi Valley, CA, US - Location: 34.26  -118.75 on Tue, 20 Mar 2007 9:51 pm PDT:
cloud or sun
cloud or sun
cloud or sun

Currently:
Cloudy
Visibility: 1,609.0 miles
Temp: 53° F     Humidity: 86%
Wind: Calm
Feels like: 53 ° F
Pressure: 30.01 in and rising
Sunrise: 6:59 am  Sunset: 7:06 pm
Forecast for Tue:
Showers Early
64° F / 47° F
Forecast for Wed:
Partly Cloudy
67° F / 47° F



Data courtesy of Yahoo! Weather

Enter 4 Letter Airport ID:

Current Observation for KDFW :

2019/05/25 21:53
KDFW 252153Z 16018G23KT 10SM SCT047 BKN055 32/20 A2995 RMK AO2 SLP132 T03170200

Forecast for KDFW :

2019/05/25 21:57
TAF 
      AMD KDFW 252054Z 2521/2624 17015KT P6SM SCT050 SCT300 
     FM260400 16011KT P6SM BKN300 
     FM261000 17015KT P6SM BKN018 
     FM261600 17017KT P6SM SCT025
GOES Pacific Coast Color Satellite View
GOES Pacific Coast Color Satellite View
GOES Hurricane Color Satellite View
GOES Hurricane Color Satellite View
  Movies and Other Links
(May take a while to load)
East Coast Movie
West Coast Movie
GOES East Full Disk
GOES West Full Disk
S Plains Radar View
Southern Plains Radar View
N Texas Radar View
Dallas Ft Worth Area View
Southern Rockies Radar View
North Texas - Oklahoma Radar View
CONUS Visible
CONUS Visible
CONUS IR
CONUS IR
CONUS Water Vapor
CONUS Water Vapor